Weather observations for the past three days for
Lincoln Regional Karl Harder Field
Imperial (Metric)
Date Time (pdt) Wind (mph) Vis. (mi.) Weather Sky Cond. Temperature (ºF) Relative Humidity Wind Chill (°F) Heat Index (°F) Pressure Precipitation (in)
Air Dwpt 6 hour altimeter (in) sea level (mb) 1 hr 3 hr 6 hr
Max. Min.
22 16:15 W 5 10.00 Fair CLR 104 51.8 17% 102 29.73 0.0
22 15:55 SW 5 10.00 Fair CLR 102.2 51.8 18% 100 29.74 0.0
22 15:35 W 5 10.00 Fair CLR 102.2 51.8 18% 100 29.74 0.0
22 15:15 SW 5 10.00 Fair CLR 100.4 53.6 21% 98 29.76 0.0
22 14:55 SW 6 10.00 Fair CLR 100.4 57.2 24% 100 29.76 0.0
22 14:15 W 6 10.00 Fair CLR 100.4 59 25% 100 29.77 0.0
22 13:55 W 7 10.00 Fair CLR 98.6 59 27% 98 29.78 0.0
22 13:35 W 6 10.00 Fair CLR 96.8 59 28% 96 29.79 0.0
22 13:15 W 7 10.00 Fair CLR 96.8 59 28% 96 29.79 0.0
22 12:55 W 3 10.00 Fair CLR 95 59 30% 94 29.8 0.0
22 12:35 W 3 10.00 Fair CLR 95 59 30% 94 29.8 0.0
22 12:15 W 3 10.00 Fair CLR 93.2 57.2 30% 92 29.8 0.0
22 11:55 SW 5 10.00 Fair CLR 91.4 59 34% 91 29.81 0.0
22 11:35 Calm 10.00 Fair CLR 89.6 59 36% 89 29.81 0.0
22 11:15 W 3 10.00 Fair CLR 89.6 59 36% 89 29.81 0.0
22 10:55 Calm 10.00 Fair CLR 87.8 57.2 35% 87 29.81 0.0
22 10:35 Calm 10.00 Fair CLR 86 57.2 38% 85 29.82 0.0
22 10:15 NW 3 10.00 Fair CLR 84.2 59 43% 84 29.82 0.0
22 09:55 SW 3 10.00 Fair CLR 82.4 59 45% 82 29.82 0.0
22 09:35 S 3 10.00 Fair CLR 80.6 57.2 45% 81 29.83 0.0
22 09:15 Calm 10.00 Fair CLR 78.8 57.2 48% 80 29.82 0.0
22 08:55 Calm 10.00 Fair CLR 77 59 54% 79 29.83 0.0
22 08:35 S 3 10.00 Fair CLR 77 57.2 51% 79 29.82 0.0
22 08:15 Calm 10.00 Fair CLR 73.4 55.4 53% 29.82 0.0
22 07:55 Calm 10.00 Fair CLR 73.4 57.2 57% 29.82 0.0
22 07:35 Calm 10.00 Fair CLR 71.6 55.4 57% 29.81 0.0
22 07:15 Calm 10.00 Fair CLR 69.8 57.2 64% 29.81 0.0
22 06:55 Calm 10.00 Fair CLR 68 57.2 69% 29.81 0.0
22 06:35 Calm 10.00 Fair CLR 66.2 55.4 68% 29.81 0.0
22 06:15 Calm 10.00 Fair CLR 66.2 55.4 68% 29.8 0.0
22 05:55 Calm 10.00 Fair CLR 64.4 57.2 78% 29.8 0.0
22 05:35 Calm 10.00 Fair CLR 64.4 55.4 73% 29.8 0.0
22 05:15 Calm 10.00 Fair CLR 64.4 57.2 78% 29.79 0.0
22 04:55 Calm 10.00 Fair CLR 64.4 57.2 78% 29.79 0.0
22 04:35 Calm 10.00 Fair CLR 66.2 57.2 73% 29.79 0.0
22 04:15 Calm 10.00 Fair CLR 66.2 55.4 68% 29.79 0.0
22 03:55 N 3 10.00 Fair CLR 66.2 55.4 68% 29.79 0.0
22 03:35 Calm 10.00 Fair CLR 68 57.2 69% 29.78 0.0
22 03:15 S 3 10.00 Fair CLR 69.8 59 69% 29.78 0.0
22 02:55 NE 5 10.00 Fair CLR 66.2 57.2 73% 29.78 0.0
22 02:35 Calm 10.00 Fair CLR 69.8 57.2 64% 29.78 0.0
22 02:15 Calm 10.00 Fair CLR 71.6 57.2 61% 29.78 0.0
22 01:55 Calm 10.00 Fair CLR 69.8 55.4 60% 29.79 0.0
22 01:35 Calm 10.00 Fair CLR 69.8 57.2 64% 29.79 0.0
22 01:15 Calm 10.00 Fair CLR 69.8 55.4 60% 29.79 0.0
22 00:55 SE 6 10.00 Fair CLR 75.2 55.4 50% 78 29.79 0.0
22 00:35 SE 5 10.00 Fair CLR 73.4 55.4 53% 29.79 0.0
22 00:15 SE 3 10.00 Fair CLR 73.4 55.4 53% 29.79 0.0
21 23:55 Calm 10.00 Fair CLR 71.6 55.4 57% 29.79 0.0
21 23:35 Calm 10.00 Fair CLR 73.4 55.4 53% 29.8 0.0
21 23:15 Calm 10.00 Fair CLR 75.2 55.4 50% 78 29.8 0.0
21 22:55 S 3 10.00 Fair CLR 77 55.4 47% 79 29.8 0.0
21 22:35 S 3 10.00 Fair CLR 77 55.4 47% 79 29.8 0.0
21 22:15 S 5 10.00 Fair CLR 77 55.4 47% 79 29.79 0.0
21 21:55 S 5 10.00 Fair CLR 78.8 55.4 45% 79 29.79 0.0
21 21:35 S 6 10.00 Fair CLR 78.8 55.4 45% 79 29.79 0.0
21 21:15 S 8 10.00 Fair CLR 80.6 59 48% 81 29.78 0.0
21 20:55 S 8 10.00 Fair CLR 82.4 59 45% 82 29.78 0.0
21 20:35 SW 7 10.00 Fair CLR 86 57.2 38% 85 29.78 0.0
21 20:15 SW 7 10.00 Fair CLR 87.8 57.2 35% 87 29.78 0.0
21 19:55 SW 6 10.00 Fair CLR 89.6 59 36% 89 29.77 0.0
21 19:35 S 7 10.00 Fair CLR 91.4 59 34% 91 29.77 0.0
21 19:15 S 6 10.00 Fair CLR 95 55.4 26% 93 29.77 0.0
21 18:55 SW 7 10.00 Fair CLR 95 55.4 26% 93 29.77 0.0
21 18:35 SW 8 10.00 Fair CLR 96.8 55.4 25% 95 29.77 0.0
21 18:15 SW 7 10.00 Fair CLR 95 55.4 26% 93 29.77 0.0
21 17:55 W 6 10.00 Fair CLR 96.8 59 28% 96 29.77 0.0
21 17:35 SW 6 10.00 Fair CLR 95 55.4 26% 93 29.78 0.0
21 17:15 Calm 10.00 Fair CLR 96.8 55.4 25% 95 29.78 0.0
21 16:55 SW 7 10.00 Fair CLR 96.8 57.2 27% 96 29.79 0.0
21 16:35 W 6 10.00 Fair CLR 96.8 53.6 23% 95 29.8 0.0
21 16:15 SW 7 10.00 Fair CLR 95 53.6 25% 93 29.8 0.0
21 15:55 S 3 10.00 Fair CLR 95 53.6 25% 93 29.81 0.0
21 15:35 SW 8 10.00 Fair CLR 95 53.6 25% 93 29.81 0.0
21 15:15 SW 6 10.00 Fair CLR 95 53.6 25% 93 29.82 0.0
21 14:55 S 7 10.00 Fair CLR 93.2 53.6 26% 91 29.83 0.0
21 14:35 SW 5 10.00 Fair CLR 93.2 53.6 26% 91 29.83 0.0
21 14:15 S 6 10.00 Fair CLR 91.4 53.6 28% 89 29.84 0.0
21 13:55 SW 7 10.00 Fair CLR 91.4 53.6 28% 89 29.84 0.0
21 13:35 SW 8 10.00 Fair CLR 89.6 53.6 29% 87 29.85 0.0
21 13:15 SW 8 10.00 Fair CLR 87.8 51.8 29% 85 29.85 0.0
21 12:55 S 9 10.00 Fair CLR 87.8 53.6 31% 86 29.86 0.0
21 12:35 SW 9 10.00 Fair CLR 87.8 51.8 29% 85 29.86 0.0
21 12:15 SW 9 10.00 Fair CLR 86 51.8 31% 84 29.87 0.0
21 11:55 SW 6 10.00 Fair CLR 84.2 51.8 33% 82 29.87 0.0
21 11:35 SW 9 10.00 Fair CLR 82.4 51.8 35% 81 29.88 0.0
21 11:15 S 8 10.00 Fair CLR 82.4 51.8 35% 81 29.88 0.0
21 10:55 S 8 10.00 Fair CLR 80.6 51.8 37% 80 29.88 0.0
21 10:35 SE 7 10.00 Fair CLR 78.8 51.8 39% 79 29.89 0.0
21 10:15 S 10 10.00 Fair CLR 78.8 51.8 39% 79 29.89 0.0
21 09:55 S 9 10.00 Fair CLR 77 51.8 42% 78 29.89 0.0
21 09:35 SE 8 10.00 Fair CLR 77 51.8 42% 78 29.89 0.0
21 09:15 SE 12 10.00 Fair CLR 75.2 51.8 44% 78 29.89 0.0
21 08:55 S 8 10.00 Fair CLR 73.4 51.8 47% 29.88 0.0
21 08:35 S 8 10.00 Fair CLR 73.4 51.8 47% 29.89 0.0
21 08:15 SE 10 10.00 Fair CLR 71.6 51.8 50% 29.88 0.0
21 07:55 SE 13 10.00 Fair CLR 71.6 51.8 50% 29.87 0.0
21 07:35 SE 9 10.00 Fair CLR 69.8 51.8 53% 29.87 0.0
21 07:15 SE 10 10.00 Fair CLR 69.8 51.8 53% 29.87 0.0
21 06:55 SE 8 10.00 Fair CLR 68 51.8 56% 29.86 0.0
21 06:35 S 8 10.00 Fair CLR 68 51.8 56% 29.85 0.0
21 06:15 SE 8 10.00 Fair CLR 68 50 53% 29.85 0.0
21 05:55 S 9 10.00 Fair CLR 68 50 53% 29.85 0.0
21 05:35 S 9 10.00 Fair CLR 68 50 53% 29.84 0.0
21 05:15 S 9 10.00 Fair CLR 69.8 50 50% 29.84 0.0
21 04:55 S 9 10.00 Fair CLR 69.8 50 50% 29.83 0.0
21 04:35 S 9 10.00 Fair CLR 69.8 51.8 53% 29.83 0.0
21 04:15 S 12 10.00 Fair CLR 71.6 51.8 50% 29.83 0.0
21 03:55 S 9 10.00 Fair CLR 69.8 51.8 53% 29.83 0.0
21 03:35 S 9 10.00 Fair CLR 71.6 51.8 50% 29.83 0.0
21 03:15 S 10 10.00 Fair CLR 71.6 51.8 50% 29.83 0.0
21 02:55 S 10 10.00 Fair CLR 71.6 51.8 50% 29.83 0.0
21 02:35 SE 12 10.00 Fair CLR 73.4 51.8 47% 29.83 0.0
21 02:15 S 9 10.00 Fair CLR 73.4 53.6 50% 29.83 0.0
21 01:55 S 9 10.00 Fair CLR 73.4 53.6 50% 29.83 0.0
21 01:35 S 9 10.00 Fair CLR 77 53.6 44% 78 29.83 0.0
21 01:15 S 12 10.00 Fair CLR 77 53.6 44% 78 29.83 0.0
21 00:55 S 10 10.00 Fair CLR 77 53.6 44% 78 29.83 0.0
21 00:35 SE 12 10.00 Fair CLR 78.8 53.6 42% 79 29.83 0.0
21 00:15 SE 8 10.00 Fair CLR 78.8 53.6 42% 79 29.83 0.0
20 23:55 S 9 10.00 Fair CLR 78.8 53.6 42% 79 29.83 0.0
20 23:35 S 10 10.00 Fair CLR 80.6 53.6 39% 80 29.83 0.0
20 23:15 SE 14 10.00 Fair CLR 82.4 53.6 37% 81 29.83 0.0
20 22:55 SE 10 10.00 Fair CLR 82.4 53.6 37% 81 29.83 0.0
20 22:35 S 7 10.00 Fair CLR 82.4 55.4 40% 82 29.82 0.0
20 22:15 S 9 10.00 Fair CLR 82.4 55.4 40% 82 29.81 0.0
20 21:55 S 8 10.00 Fair CLR 84.2 55.4 37% 83 29.82 0.0
20 21:35 S 8 10.00 Fair CLR 86 55.4 35% 85 29.81 0.0
20 21:15 S 7 10.00 Fair CLR 86 55.4 35% 85 29.81 0.0
20 20:55 S 8 10.00 Fair CLR 87.8 55.4 33% 86 29.8 0.0
20 20:35 S 9 10.00 Fair CLR 87.8 55.4 33% 86 29.8 0.0
20 20:15 S 9 10.00 Fair CLR 91.4 53.6 28% 89 29.79 0.0
20 19:55 S 7 10.00 Fair CLR 95 53.6 25% 93 29.78 0.0
20 19:35 S 7 10.00 Fair CLR 96.8 53.6 23% 95 29.78 0.0
20 19:15 SW 9 10.00 Fair CLR 98.6 51.8 21% 96 29.77 0.0
20 18:55 SW 10 10.00 Fair CLR 100.4 51.8 20% 98 29.77 0.0
20 18:35 SW 9 10.00 Fair CLR 102.2 50 17% 99 29.77 0.0
20 18:15 SW 6 10.00 Fair CLR 102.2 51.8 18% 100 29.77 0.0
20 17:55 SW 5 10.00 Fair CLR 104 46.4 14% 100 29.78 0.0
20 17:35 Calm 10.00 Fair CLR 104 44.6 13% 100 29.78 0.0
20 17:15 SW 6 10.00 Fair CLR 102.2 44.6 14% 98 29.78 0.0
20 16:55 W 6 10.00 Fair CLR 104 46.4 14% 100 29.79 0.0
20 16:35 W 3 10.00 Fair CLR 102.2 46.4 15% 98 29.79 0.0
20 16:15 Calm 10.00 Fair CLR 102.2 46.4 15% 98 29.8 0.0
20 15:55 W 5 10.00 Fair CLR 102.2 44.6 14% 98 29.8 0.0
20 15:35 W 9 10.00 Fair CLR 102.2 44.6 14% 98 29.8 0.0
20 15:15 SW 7 10.00 Fair CLR 100.4 48.2 17% 97 29.81 0.0
20 14:55 SW 9 10.00 Fair CLR 100.4 50 18% 97 29.81 0.0
20 14:35 SW 9 10.00 Fair CLR 100.4 50 18% 97 29.82 0.0
20 14:15 SW 9 10.00 Fair CLR 100.4 51.8 20% 98 29.83 0.0
20 13:55 W 8 10.00 Fair CLR 98.6 51.8 21% 96 29.83 0.0
20 13:35 W 9 10.00 Fair CLR 98.6 53.6 22% 96 29.84 0.0
20 13:15 SW 7 10.00 Fair CLR 98.6 51.8 21% 96 29.85 0.0
20 12:55 SW 7 10.00 Fair CLR 96.8 50 20% 94 29.85 0.0
20 12:35 SW 6 10.00 Fair CLR 96.8 50 20% 94 29.86 0.0
20 12:15 SW 6 10.00 Fair CLR 96.8 50 20% 94 29.86 0.0
20 11:55 S 6 10.00 Fair CLR 95 51.8 23% 92 29.87 0.0
20 11:35 SW 6 10.00 Fair CLR 95 50 22% 92 29.87 0.0
20 11:15 SW 8 10.00 Fair CLR 93.2 50 23% 90 29.87 0.0
20 10:55 SW 8 10.00 Fair CLR 91.4 50 24% 88 29.87 0.0
20 10:35 SW 8 10.00 Fair CLR 91.4 50 24% 88 29.88 0.0
20 10:15 S 6 10.00 Fair CLR 91.4 50 24% 88 29.88 0.0
20 09:55 S 6 10.00 Fair CLR 89.6 50 26% 87 29.88 0.0
20 09:35 S 6 10.00 Fair CLR 87.8 51.8 29% 85 29.88 0.0
20 09:15 SE 5 10.00 Fair CLR 86 51.8 31% 84 29.88 0.0
20 08:55 S 6 10.00 Fair CLR 82.4 51.8 35% 81 29.88 0.0
20 08:35 SE 5 10.00 Fair CLR 80.6 51.8 37% 80 29.88 0.0
20 08:15 S 5 10.00 Fair CLR 78.8 51.8 39% 79 29.88 0.0
20 07:55 Calm 10.00 Fair CLR 78.8 51.8 39% 79 29.88 0.0
20 07:35 Calm 10.00 Fair CLR 73.4 51.8 47% 29.87 0.0
20 07:15 Calm 10.00 Fair CLR 71.6 53.6 53% 29.87 0.0
20 06:55 Calm 10.00 Fair CLR 68 53.6 60% 29.86 0.0
20 06:35 Calm 10.00 Fair CLR 64.4 51.8 64% 29.86 0.0
20 06:15 N 3 10.00 Fair CLR 62.6 51.8 68% 29.85 0.0
20 05:55 N 3 10.00 Fair CLR 64.4 51.8 64% 29.85 0.0
20 05:35 Calm 10.00 Fair CLR 66.2 51.8 60% 29.85 0.0
20 05:15 Calm 10.00 Fair CLR 64.4 51.8 64% 29.85 0.0
20 04:55 Calm 10.00 Fair CLR 64.4 51.8 64% 29.84 0.0
20 04:35 Calm 10.00 Fair CLR 69.8 51.8 53% 29.83 0.0
20 04:15 S 3 10.00 Fair CLR 71.6 53.6 53% 29.83 0.0
20 03:55 Calm 10.00 Fair CLR 68 53.6 60% 29.83 0.0
20 03:35 Calm 10.00 Fair CLR 68 50 53% 29.83 0.0
20 03:15 S 3 10.00 Fair CLR 71.6 51.8 50% 29.83 0.0
20 02:55 S 5 10.00 Fair CLR 71.6 50 47% 29.83 0.0
20 02:35 Calm 10.00 Fair CLR 69.8 50 50% 29.83 0.0
20 02:15 Calm 10.00 Fair CLR 73.4 51.8 47% 29.83 0.0
20 01:35 N 6 10.00 Fair CLR 71.6 50 47% 29.84 0.0
20 01:15 Calm 10.00 Fair CLR 78.8 50 37% 79 29.84 0.0
20 00:55 Calm 10.00 Fair CLR 73.4 50 44% 29.84 0.0
20 00:35 E 3 10.00 Fair CLR 75.2 50 41% 78 29.85 0.0
20 00:15 Calm 10.00 Fair CLR 77 51.8 42% 78 29.85 0.0
19 23:55 Calm 10.00 Fair CLR 75.2 51.8 44% 78 29.85 0.0
19 23:35 Calm 10.00 Fair CLR 73.4 51.8 47% 29.85 0.0
19 23:15 SE 3 10.00 Fair CLR 78.8 51.8 39% 79 29.85 0.0
19 22:55 E 7 10.00 Fair CLR 75.2 51.8 44% 78 29.85 0.0
19 22:35 E 7 10.00 Fair CLR 75.2 51.8 44% 78 29.85 0.0
19 22:15 SE 5 10.00 Fair CLR 82.4 50 32% 81 29.85 0.0
19 21:55 SE 3 10.00 Fair CLR 86 53.6 33% 84 29.85 0.0
19 21:35 Calm 10.00 Fair CLR 82.4 53.6 37% 81 29.84 0.0
19 21:15 SW 5 10.00 Fair CLR 84.2 55.4 37% 83 29.84 0.0
19 20:55 SW 5 10.00 Fair CLR 87.8 51.8 29% 85 29.83 0.0
19 20:35 SW 6 10.00 Fair CLR 91.4 51.8 26% 89 29.83 0.0
19 20:15 SW 6 10.00 Fair CLR 93.2 50 23% 90 29.83 0.0
19 19:55 SW 5 10.00 Fair CLR 96.8 50 20% 94 29.83 0.0
19 19:35 SW 6 10.00 Fair CLR 98.6 46.4 17% 95 29.83 0.0
19 19:15 SW 5 10.00 Fair CLR 100.4 46.4 16% 97 29.83 0.0
19 18:55 W 5 10.00 Fair CLR 102.2 46.4 15% 98 29.82 0.0
19 18:35 W 6 10.00 Fair CLR 102.2 48.2 16% 99 29.83 0.0
19 18:15 W 6 10.00 Fair CLR 104 46.4 14% 100 29.83 0.0
19 17:55 W 5 10.00 Fair CLR 104 46.4 14% 100 29.83 0.0
19 17:15 W 10 10.00 Fair CLR 104 44.6 13% 100 29.83 0.0
19 16:55 W 9 10.00 Fair CLR 104 50 16% 101 29.84 0.0
19 16:35 NW 7 10.00 Fair CLR 104 50 16% 101 29.85 0.0
Date Time (pdt) Wind (mph) Vis. (mi.) Weather Sky Cond. Air Dwpt Max. Min. Relative Humidity Wind Chill (°F) Heat Index (°F) altimeter (in) sea level (mb) 1 hr 3 hr 6 hr
6 hour
Temperature (ºF) Pressure Precipitation (in)